Location: Arbon
(43.0005°N, 0.7472°E)
Time: 00:10:04
(UTC+00:00)

CZ-2D R/B - Pass Details

Date: 07 August 2020
Orbit: 792 x 845 km, 98.7° (Epoch: 19 September)

Event Time Altitude Azimuth Distance (km) Brightness Sun altitude
Rises 00:30:55 0° 26° (NNE) 3,409 6.4 -30.3°
Reaches altitude 10° 00:33:46 10° 41° (NE) 2,472 5.3 -30.2°
Enters shadow 00:38:04 24° 93° (E) 1,705 3.8 -30.1°
